Location: Le Hiès Ruisseau
(43.3000°N, 0.4500°W)
Time: 08:31:49
(UTC+00:00)

NOSS 3-4 (A) - Pass Details

Date: 28 January 2023
Orbit: 835 x 1377 km, 63.4° (Epoch: 24 March)

Event Time Altitude Azimuth Distance (km) Brightness Sun altitude
Rises 17:35:56 0° 324° (NW) 3,785 6.8 -5.6°
Reaches altitude 10° 17:38:26 10° 327° (NNW) 2,903 6.2 -6.0°
Maximum altitude 17:45:24 71° 51° (NE) 1,239 3.9 -7.2°
Drops below altitude 10° 17:53:19 10° 135° (SE) 3,278 6.0 -8.6°
Sets 17:56:17 0° 138° (SE) 4,302 6.6 -9.1°
